Home > Weather > Minas > Past weeks

Flag for Uruguay Past Weather in Minas, Uruguay — Yesterday and Last 2 Weeks

Now
54 °F

More clouds than sun.


Feels Like: 49 °F
Forecast: 43 / 54 °F
Wind: 16 mph from East

Location: Capitan Corbeta

Current Time: Jul 25, 2016 at 11:02:32 AM

Latest Report: Jul 25, 2016 at 10:00 AM


Visibility: 5 mi

Pressure: 30.12 "Hg

Humidity: 88%

Dew Point: 50 °F

Location of MinasLocation

Past Weather in Minas — Graph

°F

Minas Temperature Yesterday

Maximum temperature yesterday: 55 °F (at 3:00 AM)
Minimum temperature yesterday: 46 °F (at 1:00 AM)
Average temperature yesterday: 49 °F

High & Low Weather Summary for the Past Weeks

 TemperatureHumidityPressure
High66 °F (Jul 12, 7:00 PM)100% (Jul 11, 9:00 AM)30.39 "Hg (Jul 11, 9:00 AM)
Low37 °F (Jul 20, 4:00 AM)43% (Jul 12, 7:00 PM)29.74 "Hg (Jul 11, 5:00 PM)
Average49 °F81%30.08 "Hg
* Reported Jul 10 10:00 AM — Jul 25 10:00 AM, Minas, Weather by CustomWeather, © 2016

Note: Actual official high and low records may vary slightly from our data, if they occured in-between our weather recording intervals... More about our weather records

Advertising

Minas Weather History for the Previous 24 Hours

Scroll right to see more
 ConditionsComfort  
Time TempWeatherWind HumidityBarometerVisibility
10:00 AM
Mon, Jul 25
54 °FMore clouds than sun.16 mph88%30.12 "Hg5 mi
9:00 AM52 °FMore clouds than sun.12 mph94%30.12 "Hg5 mi
8:00 AM50 °FOvercast.8 mph94%30.15 "Hg5 mi
7:00 AM50 °FOvercast.9 mph94%30.15 "HgN/A
6:00 AM48 °FOvercast.8 mph87%30.15 "HgN/A
5:00 AM48 °FOvercast.7 mph87%30.15 "HgN/A
4:00 AM48 °FOvercast.7 mph87%30.15 "HgN/A
3:00 AM48 °FOvercast.8 mph87%30.18 "HgN/A
2:00 AM48 °FOvercast.7 mph87%30.21 "HgN/A
1:00 AM48 °FOvercast.6 mph87%30.21 "HgN/A
12:00 AM48 °FOvercast.3 mph87%30.21 "HgN/A
11:00 PM
Sun, Jul 24
48 °FOvercast.5 mph87%30.21 "HgN/A
10:00 PM48 °FOvercast.7 mph87%30.21 "HgN/A
9:00 PM46 °FPassing clouds.5 mph87%30.21 "HgN/A
8:00 PM46 °FPassing clouds.8 mph82%30.21 "HgN/A
7:00 PM48 °FOvercast.9 mph82%30.18 "HgN/A
6:00 PM46 °FOvercast.7 mph82%30.18 "HgN/A
5:00 PM48 °FOvercast.10 mph82%30.18 "HgN/A
4:00 PM48 °FPartly sunny.15 mph76%30.15 "HgN/A
3:00 PM48 °FPartly sunny.20 mph76%30.15 "HgN/A
2:00 PM50 °FPartly sunny.15 mph71%30.18 "HgN/A
1:00 PM50 °FPartly sunny.9 mph71%30.21 "HgN/A
12:00 PM48 °FLow clouds.7 mph76%30.21 "HgN/A
11:00 AM48 °FLow clouds.6 mph76%30.21 "HgN/A
Weather by CustomWeather, © 2016

See weather overviewHow to use our weather pages